Regional Weather Roundup
Issued by NWS

Home | Current Version | Previous Version | Graphics & Text | Print | Product List | Glossary On
Versions: 1 2 3 4 5 6 7 8 9 10 11 12 13 14 15 16 17 18 19 20 21 22 23 24 25 26 27
000
ASUS45 KCYS 201810
RWRWY

WYOMING REGIONAL WEATHER ROUNDUP
NATIONAL WEATHER SERVICE CHEYENNE WY
1100 AM MST FRI JAN 20 2017

NOTE:  "FAIR" INDICATES FEW OR NO CLOUDS BELOW 12,000 FEET
WITH NO SIGNIFICANT WEATHER AND/OR OBSTRUCTIONS TO VISIBILITY.

WYZ001-201900-
YELLOWSTONE NATIONAL PARK

CITY           SKY/WX    TMP DP  RH WIND       PRES   REMARKS
LK YELLOWSTONE   N/A     21  18  88 CALM      29.50F
6HR MIN TEMP:  17; 6HR MAX TEMP:  21;

W YELLOWSTONE  NOT AVBL

$$
WYZ002>013-054>058-071-098>099-201900-
NORTHERN WYOMING

CITY           SKY/WX    TMP DP  RH WIND       PRES   REMARKS
JACKSON        MOSUNNY   19  18  93 CALM      29.51F
CODY           FAIR      35  18  49 S3        29.46F
GREYBULL       FAIR      29  24  82 CALM      29.48F
6HR MIN TEMP:  24; 6HR MAX TEMP:  29;

WORLAND        FAIR      31  27  85 CALM      29.48F
6HR MIN TEMP:  25; 6HR MAX TEMP:  32;

SHERIDAN       CLOUDY    35  32  88 NW3       29.46F
6HR MIN TEMP:  33; 6HR MAX TEMP:  35; 6HR PCP:  0.03;

BUFFALO        LGT SNOW  34  31  88 W5        29.45F FOG     WCI  30
6HR MIN TEMP:  31; 6HR MAX TEMP:  34; 6HR PCP:  0.05;

GILLETTE       LGT SNOW  32  31  96 W12       29.43F FOG     WCI  23
6HR MIN TEMP:  30; 6HR MAX TEMP:  33; 6HR PCP: TRACE;

HULETT         CLOUDY    34  30  86 S7        29.43F WCI  28
NEWCASTLE      FAIR      34  30  86 NW16      29.41S WCI  23

$$
WYZ014>020-022>026-101>103-201900-
CENTRAL WYOMING

CITY           SKY/WX    TMP DP  RH WIND       PRES   REMARKS
BIG PINEY      FAIR       3  -1  83 E6        29.54F WCI  -8
6HR MIN TEMP:  -7; 6HR MAX TEMP:   4;

PINEDALE       LGT SNOW   1  -2  85 SE5       29.54F WCI  -8
DUBOIS         NOT AVBL
LANDER         FAIR      30  19  63 CALM      29.48F
6HR MIN TEMP:  18; 6HR MAX TEMP:  30;

RIVERTON       FAIR      21  15  78 CALM      29.49F
6HR MIN TEMP:  15; 6HR MAX TEMP:  24;

CASPER         CLOUDY    31  29  92 W3        29.46F FOG
6HR MIN TEMP:  27; 6HR MAX TEMP:  31; 6HR PCP:  0.05;

DOUGLAS        LGT SNOW  32  29  88 NW15      29.45F FOG     WCI  22
6HR MIN TEMP:  31; 6HR MAX TEMP:  34; 6HR PCP:  0.01;


$$
WYZ021-027>030-104>119-201900-
SOUTHERN WYOMING

CITY           SKY/WX    TMP DP  RH WIND       PRES   REMARKS
EVANSTON       FAIR      22  18  85 E6        29.52F WCI  14
6HR MIN TEMP:  21; 6HR MAX TEMP:  24;

ROCK SPRINGS   CLOUDY    21  19  92 W5        29.54F WCI  15
6HR MIN TEMP:  17; 6HR MAX TEMP:  21;

RAWLINS        FAIR      25  18  74 SW23G30   29.49F WCI  10
6HR MIN TEMP:  24; 6HR MAX TEMP:  25;

LARAMIE        CLOUDY    28  20  71 CALM      29.44F
6HR MIN TEMP:  20; 6HR MAX TEMP:  28;

CHEYENNE       CLOUDY    36  22  56 NW13      29.42F WCI  27
6HR MIN TEMP:  31; 6HR MAX TEMP:  37; 6HR PCP:  0.01;

TORRINGTON     FAIR      38  28  67 W10       29.41F WCI  31
6HR MIN TEMP:  23; 6HR MAX TEMP:  38;


$$




USA.gov is the U.S. government's official web portal to all federal, state and local government web resources and services.